User: anonymous   Login
Location: Unspecified
(0.0000°N, 0.0000°E)
Time: 06:19:04
(UTC+00:00)
Language:

deb r/b Ablestar - Orbit

View from above orbital plane
View from above orbital plane
View from above satellite
View from above satellite

Ground track
Ground track

The orbit data is extracted from the following two-line orbital elements,

1   335U 61015DM  17264.57296597 +.00000460 +00000-0 +26841-3 0  9998
2   335 066.8441 354.0297 0037850 359.2407 000.8622 14.16818272874732
Epoch (UTC): 21 September 2017 13:45:04
Eccentricity: 0.0037850
inclination: 66.8441°
perigee height: 809 km
apogee height: 863 km
right ascension of ascending node: 354.0297°
argument of perigee: 359.2407°
revolutions per day: 14.16818272
mean anomaly at epoch: 0.8622°
orbit number at epoch: 87473

The dashed part of the orbit path shows where the satellite is in the earth's shadow,  

DLR